Location: Brno
(49.2000°N, 16.6330°E)
Time: 23:48:19
(UTC+02:00)

Transit 4A - Pass Details

Date: 26 July 2021
Orbit: 870 x 974 km, 66.8° (Epoch: 26 September)

Event Time Altitude Azimuth Distance (km) Brightness Sun altitude
Rises 04:56:15 0° 272° (W) 3,477 10.4 -3.8°
Reaches altitude 10° 04:59:28 10° 289° (WNW) 2,531 9.9 -3.3°
Maximum altitude 05:03:39 20° 335° (NNW) 1,924 9.7 -2.8°
Drops below altitude 10° 05:07:50 10° 22° (NNE) 2,528 11.2 -2.2°
Sets 05:11:03 0° 39° (NE) 3,472 12.6 -1.8°
